Regional Weather Roundup
Issued by NWS

Home | Current Version | Previous Version | Graphics & Text | Print | Product List | Glossary On
Versions: 1 2 3 4 5 6 7 8 9 10 11 12 13 14 15 16 17 18 19 20 21 22 23 24 25 26 27
000
ASUS45 KBOU 211410
RWRCO

WEATHER ROUNDUP FOR COLORADO
NATIONAL WEATHER SERVICE DENVER/BOULDER CO
700 AM MST SUN JAN 21 2018

NOTE: "FAIR" INDICATES FEW OR NO CLOUDS BELOW 12000 FEET WITH NO
SIGNIFICANT WEATHER AND/OR OBSTRUCTIONS TO VISIBILITY.

COZ001>005-013-030-031-211500-
...NORTHWEST COLORADO...

CITY           SKY/WX    TMP DP  RH WIND       PRES   REMARKS
CRAIG          LGT SNOW  21  17  84 SW12      29.76R VSB 3/4 WCI   9
HAYDEN         LGT SNOW N/A N/A N/A SW12      29.75R
MEEKER         LGT SNOW  20  18  92 W6        29.79R VSB 3/4 WCI  12
RABBIT EARS PA LGT SNOW  16  14  93 CALM      29.62S
STEAMBOAT SPGS CLOUDY    19  18  95 SW6       29.72R VSB 1   WCI  11
WALDEN         CLOUDY    19  10  68 NE14      29.67F WCI   6
$$

COZ006>008-011-211500-
...WEST CENTRAL VALLEYS...

CITY           SKY/WX    TMP DP  RH WIND       PRES   REMARKS
GRAND JUNCTION LGT SNOW  28  28 100 W10       29.82R FOG     WCI  19
MONTROSE       CLOUDY    26  24  92 NW7       29.79R WCI  18
EAGLE          CLOUDY    28  23  81 SW12      29.68R WCI  18
RIFLE          CLOUDY    28  18  66 W16       29.78R WCI  16
DELTA          CLOUDY    33  24  70 W9G16     29.74R WCI  25
NUCLA          LGT SNOW  27  25  93 W7        29.83R VSB 1   WCI  19
$$

COZ017>023-064>068-211500-
...SOUTHWEST COLORADO...

CITY           SKY/WX    TMP DP  RH WIND       PRES   REMARKS
DURANGO        CLOUDY    22  21  96 SW7       29.73R WCI  13
CORTEZ         LGT SNOW  25  23  92 W8        29.79R FOG     WCI  16
PAGOSA SPRINGS FAIR      22  20  96 W8        29.70R WCI  12
TELLURIDE      FAIR      15  14  93 SW6       29.71R WCI   7
WOLF CREEK PAS LGT SNOW   7   5  92 MISG      29.64R VSB 1
$$

COZ009-010-012-014-032>034-037-058>063-211500-
...CENTRAL COLORADO...

CITY           SKY/WX    TMP DP  RH WIND       PRES   REMARKS
ASPEN          CLOUDY    25  20  81 N10G17    29.63R WCI  15
BUENA VISTA    CLOUDY    26  23  89 SE5       29.62R WCI  20
COPPER MTN     NOT AVBL
BERTHOUD PASS  SNOW       3  -8  60 MISG      29.61F VSB 1/2
COTTONWOOD PAS   N/A     27  23  86 N3        29.59F FOG
GUNNISON       CLOUDY    23  19  85 SW7       29.66R WCI  15
KREMMLING      FLURRIES  30  27  86 CALM      29.66S
LEADVILLE      LGT SNOW  18  16  92 NW3       29.57F VSB 3/4
MONARCH PASS   LGT SNOW  10   9  92 W18       29.68S WCI  -8
SALIDA         CLOUDY    29  26  89 SE7       29.70S WCI  21
SUNLIGHT       LGT SNOW  10   7  85 SW12G20   29.67R VSB 3/4 WCI  -4
WILKERSON PASS LGT SNOW  12   9  85 E12       29.62S WCI  -2
$$

COZ069>075-211500-
...SAN LUIS VALLEY/SANGRE DE CRISTO MOUNTAINS...

CITY           SKY/WX    TMP DP  RH WIND       PRES   REMARKS
ALAMOSA        CLOUDY    23  15  71 S12       29.62R WCI  12
DEL NORTE      CLOUDY    23  19  85 W12       29.62F WCI  11
LA VETA PASS   FAIR      12   9  85 SW8         N/A  WCI   1
SAGUACHE       LGT SNOW  25  21  86 SE7       29.64S WCI  17
$$

COZ035-036-038>040-211500-
...NORTHERN COLORADO FRONT RANGE...

CITY           SKY/WX    TMP DP  RH WIND       PRES   REMARKS
DENVER INTL AP LGT SNOW  25  23  92 N10       29.80S VSB 3/4 WCI  15
DMNS CITY PARK NOT AVBL
AURORA         LGT SNOW  25  25 100 N9        29.79F FOG     WCI  15
FRONT RANGE AP CLOUDY    27  27 100 N8        29.80F WCI  18
ERIE MUNI ARPT LGT SNOW  28  27  98 N9        29.88S WCI  19
BOULDER MUN AP LGT SNOW  28  28 100 N7        29.82S WCI  21
CENTENNIAL     SNOW      24  23  96 N10       29.77F VSB 1/2 WCI  14
BROOMFIELD     LGT SNOW  27  27 100 NW10      29.80F VSB 1   WCI  17
FORT COLLINS   LGT SNOW  27  27 100 N8        29.85R VSB 1   WCI  18
LONGMONT       LGT SNOW  29  28  93 N6        29.85S WCI  23
$$

COZ041-046-047-076>085-087-088-211500-
...PIKES PEAK/PALMER DIVIDE AND SOUTHERN FOOTHILLS...

CITY           SKY/WX    TMP DP  RH WIND       PRES   REMARKS
COLO. SPRINGS  CLOUDY    28  20  71 N16       29.72R WCI  16
A. F. ACADEMY  MIX PCPN  24  20  82 N18       29.71S WCI  11
SCHRIEVER AFB  FLURRIES  25  21  86 NE9       29.71S WCI  15
CHEYENNE MTN   LGT SNOW  23  21  93 N20       29.62F VSB 3/4 WCI   8
ELLICOTT       LGT SNOW N/A N/A N/A NE15      29.69S
FALCON         CLOUDY    23  20  89 N15G21    29.70S WCI  10
FORT CARSON    MIX PCPN  28  23  81 N20       29.69F WCI  15
LIMON          LGT SNOW  25  24  96 N9        29.75F FOG     WCI  15
MONUMENT HILL  LGT SNOW N/A N/A N/A N12G17    29.74S
CANON CITY     LGT SNOW  32  30  93 SE10      29.70F WCI  24
WALSENBURG     CLOUDY    28  28 100 NE6       29.70S WCI  22
TRINIDAD       CLOUDY    27  25  92 NE7       29.68F FOG     WCI  19
$$

COZ042>045-048>051-090-091-211500-
...NORTHEAST COLORADO...

CITY           SKY/WX    TMP DP  RH WIND       PRES   REMARKS
GREELEY ARPT   LGT SNOW  27  26  96 NW6       29.85R FOG     WCI  20
AKRON          CLOUDY    27  26  96 NE15      29.79R WCI  15
BURLINGTON     CLOUDY    28  27  96 N16       29.75F FOG     WCI  16
WRAY           CLOUDY    32  28  86 N12G23    29.81R WCI  23
YUMA           CLOUDY    28  27  93 NE16      29.79S WCI  17
STERLING       FLURRIES  30  30 100 NE12      29.81S WCI  21
HOLYOKE        CLOUDY    34  30  86 N18G26    29.81F WCI  23
FORT MORGAN    LGT SNOW  28  26  94 NE6       29.83R WCI  21
$$

COZ086-089-092>099-211500-
...SOUTHEAST COLORADO...

CITY           SKY/WX    TMP DP  RH WIND       PRES   REMARKS
PUEBLO         LGT SNOW  31  29  92 CALM      29.73S FOG
LA JUNTA       CLOUDY    31  25  78 NE7       29.74F WCI  24
LAMAR          CLOUDY    32  26  78 N7        29.74F WCI  26
SPRINGFIELD      N/A     28  27  96 N14       29.73R WCI  17
$$




USA.gov is the U.S. government's official web portal to all federal, state and local government web resources and services.